Find Starlink 33941

NORAD ID: 63765 Int'l Des: 2025-089 Owner: SPXS Country: US Constellation: starlink operational
LEOCIRCULAR

Live Position

Loading 3D Globe...

About Starlink 33941

Description loading...

Upcoming Passes

Passes for default location (London). Set your location on the main map for personalized predictions.

Altitude History

Loading altitude history...

Two-Line Element Set

1 63765U 25089Q 26127.26202195 .00021437 00000-0 78625-3 0 9994
2 63765 43.0012 74.6059 0001420 269.6496 90.4193 15.27579542 57903
Epoch: May 7, 2026 • Age: 23 hours

Current Status

Altitude 490.4 km
Velocity 7.62 km/s
Sub-Earth Point -30.15°S, 17.29°W
Launch Date Apr 29, 2025
Age 1 years
Type internet

Technical Details

Classification Payload
Mass 575.00 kg
Dry Mass 530.00 kg
Total Mass 575.00 kg
Length 0.30 m
Diameter 4.10 m
Span 29.00 m
Shape Box + pan
Manufacturer SPXS
Bus Type Starlink V2MO
Phase Status In Orbit
Owner/State SPXS/US

Most Searched